User: anonymous   Login
Location: Caltech
(34.1382°N, 118.1253°W)
Time: 10:20:18
(UTC-07:00)
Language:

COSMOS 2428 - Orbit

View from above orbital plane
View from above orbital plane
View from above satellite
View from above satellite

Ground track
Ground track

The orbit data is extracted from the following two-line orbital elements,

1 31792U 07029A   15184.40541661  .00000137  00000-0  10000-3 0  9991
2 31792 070.9817 111.2175 0010437 270.0445 228.6585 14.12537239413147
Epoch (UTC): 03 July 2015 09:43:47
Eccentricity: 0.0010437
inclination: 70.9817°
perigee height: 843 km
apogee height: 858 km
right ascension of ascending node: 111.2175°
argument of perigee: 270.0445°
revolutions per day: 14.12537239
mean anomaly at epoch: 228.6585°
orbit number at epoch: 41314

The dashed part of the orbit path shows where the satellite is in the earth's shadow,  

DLR